Tracking 31027 objects as of 19-Jul-2025
HD Live streaming from Space Station
objects crossing your sky now

COSMOS 2065

Track COSMOS 2065 now!
10-day predictions
COSMOS 2065 is classified as:


NORAD ID: 20550
Int'l Code: 1990-029B
Perigee: 1,468.7 km
Apogee: 1,481.3 km
Inclination: 74.0 °
Period: 115.3 minutes
Semi major axis: 7845 km
RCS: 0.6645 m2 (medium)
Launch date: April 6, 1990
Source: Commonwealth of Independent States (former USSR) (CIS)
Launch site: PLESETSK MISSILE AND SPACE COMPLEX (PKMTR)
Your satellite tracking list
FENGYUN 1C DEB
Track 1 satellite(s)




NASA's NSSDC Master Catalog

Two Line Element Set (TLE):
1 20550U 90029B   25199.51853267 -.00000008  00000-0  54732-4 0  9999
2 20550  73.9820  22.8862 0008037 120.4042 268.0216 12.49199707609045
Source of the keplerian elements: AFSPC